TimeAKST,TemperatureF,Dew PointF,Humidity,Sea Level PressureIn,VisibilityMPH,Wind Direction,Wind SpeedMPH,Gust SpeedMPH,PrecipitationIn,Events,Conditions,WindDirDegrees,DateUTC
12:16 AM,12.2,5.0,73,29.26,10.0,ENE,3.5,-,N/A,,Overcast,70,2013-01-02 09:16:00
12:36 AM,12.2,6.8,79,29.26,9.0,NE,3.5,-,N/A,,Overcast,50,2013-01-02 09:36:00
12:56 AM,10.4,6.8,85,29.25,3.0,Calm,Calm,-,N/A,,Overcast,0,2013-01-02 09:56:00
1:16 AM,10.4,6.8,85,29.25,3.0,Calm,Calm,-,N/A,,Overcast,0,2013-01-02 10:16:00
1:36 AM,10.4,8.6,92,29.25,2.5,NNE,3.5,-,N/A,,Overcast,20,2013-01-02 10:36:00
1:56 AM,10.4,6.8,85,29.25,2.0,NNE,3.5,-,N/A,,Overcast,20,2013-01-02 10:56:00
2:16 AM,10.4,8.6,92,29.26,2.0,NE,3.5,-,N/A,,Overcast,40,2013-01-02 11:16:00
2:36 AM,10.4,8.6,92,29.26,2.5,Calm,Calm,-,N/A,,Overcast,0,2013-01-02 11:36:00
3:16 AM,10.4,8.6,92,29.26,2.5,Calm,Calm,-,N/A,,Overcast,0,2013-01-02 12:16:00
3:36 AM,12.2,8.6,85,29.26,3.0,Calm,Calm,-,N/A,,Overcast,0,2013-01-02 12:36:00
3:56 AM,12.2,8.6,85,29.26,7.0,Calm,Calm,-,N/A,,Overcast,0,2013-01-02 12:56:00
4:16 AM,12.2,8.6,85,29.26,8.0,Calm,Calm,-,N/A,,Overcast,0,2013-01-02 13:16:00
4:36 AM,12.2,10.4,92,29.27,10.0,Calm,Calm,-,N/A,,Overcast,0,2013-01-02 13:36:00
4:56 AM,12.2,10.4,92,29.28,10.0,Calm,Calm,-,N/A,,Overcast,0,2013-01-02 13:56:00
5:16 AM,12.2,10.4,92,29.28,3.0,Calm,Calm,-,N/A,,Overcast,0,2013-01-02 14:16:00
5:36 AM,12.2,8.6,85,29.28,3.0,Calm,Calm,-,N/A,,Overcast,0,2013-01-02 14:36:00
5:56 AM,12.2,10.4,92,29.29,2.5,Calm,Calm,-,N/A,,Overcast,0,2013-01-02 14:56:00
6:16 AM,12.2,10.4,92,29.29,1.8,Calm,Calm,-,N/A,,Overcast,0,2013-01-02 15:16:00
6:36 AM,12.2,10.4,92,29.29,3.0,Calm,Calm,-,N/A,,Overcast,0,2013-01-02 15:36:00
6:56 AM,10.4,8.6,92,29.29,10.0,Calm,Calm,-,N/A,,Overcast,0,2013-01-02 15:56:00
7:16 AM,10.4,10.4,100,29.30,10.0,Calm,Calm,-,N/A,,Overcast,0,2013-01-02 16:16:00
7:36 AM,10.4,10.4,100,29.30,10.0,Calm,Calm,-,N/A,,Overcast,0,2013-01-02 16:36:00
7:56 AM,10.4,8.6,92,29.31,10.0,Calm,Calm,-,N/A,,Overcast,0,2013-01-02 16:56:00
8:16 AM,10.4,8.6,92,29.32,10.0,Calm,Calm,-,N/A,,Overcast,0,2013-01-02 17:16:00
8:36 AM,10.4,8.6,92,29.32,10.0,Calm,Calm,-,N/A,,Overcast,0,2013-01-02 17:36:00
8:56 AM,12.2,8.6,85,29.32,10.0,Calm,Calm,-,N/A,,Overcast,0,2013-01-02 17:56:00
9:16 AM,12.2,10.4,92,29.33,10.0,Calm,Calm,-,N/A,,Overcast,0,2013-01-02 18:16:00
9:36 AM,12.2,10.4,92,29.34,10.0,Calm,Calm,-,N/A,,Overcast,0,2013-01-02 18:36:00
9:56 AM,10.4,8.6,92,29.35,10.0,Calm,Calm,-,N/A,,Mostly Cloudy,0,2013-01-02 18:56:00
10:16 AM,10.4,8.6,92,29.36,10.0,Calm,Calm,-,N/A,,Mostly Cloudy,0,2013-01-02 19:16:00
10:36 AM,10.4,8.6,92,29.37,10.0,Calm,Calm,-,N/A,,Overcast,0,2013-01-02 19:36:00
10:56 AM,10.4,8.6,92,29.38,10.0,Calm,Calm,-,N/A,,Overcast,0,2013-01-02 19:56:00
11:16 AM,10.4,6.8,85,29.39,10.0,Calm,Calm,-,N/A,,Overcast,0,2013-01-02 20:16:00
11:36 AM,8.6,6.8,92,29.39,10.0,Calm,Calm,-,N/A,,Mostly Cloudy,0,2013-01-02 20:36:00
11:56 AM,8.6,6.8,92,29.41,10.0,Calm,Calm,-,N/A,,Mostly Cloudy,0,2013-01-02 20:56:00
12:16 PM,8.6,6.8,92,29.41,10.0,Calm,Calm,-,N/A,,Mostly Cloudy,0,2013-01-02 21:16:00
12:36 PM,8.6,6.8,92,29.42,7.0,Calm,Calm,-,N/A,,Mostly Cloudy,0,2013-01-02 21:36:00
12:56 PM,10.4,6.8,85,29.43,3.0,Calm,Calm,-,N/A,,Overcast,0,2013-01-02 21:56:00
1:16 PM,10.4,6.8,85,29.44,3.0,Calm,Calm,-,N/A,,Overcast,0,2013-01-02 22:16:00
1:36 PM,10.4,6.8,85,29.44,10.0,Calm,Calm,-,N/A,,Overcast,0,2013-01-02 22:36:00
1:56 PM,10.4,6.8,85,29.44,10.0,Calm,Calm,-,N/A,,Scattered Clouds,0,2013-01-02 22:56:00
2:16 PM,8.6,6.8,92,29.44,10.0,Calm,Calm,-,N/A,,Clear,0,2013-01-02 23:16:00
2:36 PM,6.8,5.0,92,29.45,9.0,Calm,Calm,-,N/A,,Clear,0,2013-01-02 23:36:00
2:56 PM,5.0,3.2,92,29.46,4.0,Calm,Calm,-,N/A,,Clear,0,2013-01-02 23:56:00
3:16 PM,5.0,3.2,92,29.46,10.0,South,3.5,-,N/A,,Scattered Clouds,170,2013-01-03 00:16:00
3:56 PM,1.4,-0.4,92,29.47,10.0,Calm,Calm,-,N/A,,Partly Cloudy,0,2013-01-03 00:56:00
4:16 PM,-0.4,-2.2,92,29.49,10.0,Calm,Calm,-,N/A,,Partly Cloudy,0,2013-01-03 01:16:00
4:36 PM,-0.4,-4.0,85,29.49,10.0,Calm,Calm,-,N/A,,Partly Cloudy,0,2013-01-03 01:36:00
4:56 PM,-0.4,-0.4,100,29.49,10.0,Calm,Calm,-,N/A,,Partly Cloudy,0,2013-01-03 01:56:00
5:16 PM,-5.8,-11.2,77,29.50,10.0,Calm,Calm,-,N/A,,Partly Cloudy,0,2013-01-03 02:16:00
5:36 PM,-5.8,-7.6,92,29.50,10.0,Calm,Calm,-,N/A,,Partly Cloudy,0,2013-01-03 02:36:00
5:56 PM,-4.0,-5.8,92,29.51,10.0,Calm,Calm,-,N/A,,Partly Cloudy,0,2013-01-03 02:56:00
6:16 PM,-4.0,-11.2,71,29.51,10.0,Calm,Calm,-,N/A,,Scattered Clouds,0,2013-01-03 03:16:00
6:36 PM,-5.8,-11.2,77,29.52,10.0,Calm,Calm,-,N/A,,Scattered Clouds,0,2013-01-03 03:36:00
6:56 PM,-5.8,-7.6,92,29.53,10.0,Calm,Calm,-,N/A,,Partly Cloudy,0,2013-01-03 03:56:00
7:16 PM,-5.8,-9.4,84,29.54,10.0,Calm,Calm,-,N/A,,Partly Cloudy,0,2013-01-03 04:16:00
7:36 PM,-7.6,-14.8,71,29.54,10.0,Calm,Calm,-,N/A,,Partly Cloudy,0,2013-01-03 04:36:00
7:56 PM,-5.8,-5.8,100,29.54,10.0,Calm,Calm,-,N/A,,Partly Cloudy,0,2013-01-03 04:56:00
8:16 PM,-7.6,-16.6,65,29.55,10.0,Calm,Calm,-,N/A,,Clear,0,2013-01-03 05:16:00
8:36 PM,-7.6,-11.2,84,29.56,10.0,Calm,Calm,-,N/A,,Clear,0,2013-01-03 05:36:00
8:56 PM,-9.4,-16.6,71,29.57,10.0,Calm,Calm,-,N/A,,Clear,0,2013-01-03 05:56:00
9:16 PM,-7.6,-9.4,92,29.57,10.0,NNE,3.5,-,N/A,,Clear,30,2013-01-03 06:16:00
9:36 PM,-5.8,-11.2,77,29.57,10.0,Calm,Calm,-,N/A,,Clear,0,2013-01-03 06:36:00
9:56 PM,-9.4,-13.0,84,29.57,10.0,Calm,Calm,-,N/A,,Clear,0,2013-01-03 06:56:00
10:16 PM,-7.6,-7.6,100,29.57,10.0,NE,3.5,-,N/A,,Clear,50,2013-01-03 07:16:00
10:36 PM,-7.6,-14.8,71,29.58,10.0,Calm,Calm,-,N/A,,Clear,0,2013-01-03 07:36:00
10:56 PM,-9.4,-9.4,100,29.59,10.0,NNE,3.5,-,N/A,,Clear,30,2013-01-03 07:56:00
11:16 PM,-7.6,-14.8,71,29.59,10.0,NNE,3.5,-,N/A,,Clear,30,2013-01-03 08:16:00
11:36 PM,-5.8,-9.4,84,29.60,10.0,Calm,Calm,-,N/A,,Clear,0,2013-01-03 08:36:00
11:56 PM,-9.4,-16.6,71,29.61,10.0,Calm,Calm,-,N/A,,Clear,0,2013-01-03 08:56:00